Wind_Speed
73 77 82 93 92 92 80 67 58 46 40 37 28 24 22 26 35 45 55 63 64 68 72 80 84 80 72 75 76 74 79 74 54 53 60 69 66 66 65 65 63 62 69 69
76 78 84 92 99 89 91 71 62 46 40 40 31 23 21 26 33 44 52 61 64 68 71 71 81 84 81 76 76 75 72 74 66 54 64 69 71 67 65 64 63 63 65 67
79 82 85 90 100 104 93 77 67 50 42 42 34 24 21 24 32 40 49 59 65 67 69 73 78 88 88 80 74 71 74 69 77 75 67 70 69 69 67 66 64 61 63 64
78 83 92 93 100 103 91 79 73 59 47 44 36 27 18 19 29 37 45 53 63 66 66 71 73 78 84 87 84 79 75 71 65 68 67 65 68 70 70 65 66 64 63 62
74 83 91 95 104 98 94 85 76 65 52 47 38 28 17 10 24 34 42 49 56 63 66 68 71 75 75 79 83 84 82 76 71 62 65 63 64 67 69 67 63 66 65 62
75 84 92 96 102 92 98 87 76 68 55 52 40 28 22 9 13 28 38 46 51 56 64 67 68 72 73 74 75 80 83 83 79 71 64 64 65 67 68 68 71 70 68 64
74 85 89 93 100 97 100 85 76 70 56 52 44 32 23 16 8 18 30 41 47 53 58 66 69 69 76 72 71 73 78 81 82 81 77 70 69 67 66 66 67 71 71 70
73 83 88 98 98 102 95 89 79 69 56 53 48 35 29 21 12 11 22 33 44 48 52 57 67 71 71 77 75 72 71 75 79 82 79 77 78 71 68 67 72 71 69 71
73 81 87 93 97 97 89 94 81 71 58 54 50 40 31 27 20 12 13 24 35 47 48 51 57 66 70 71 76 79 78 71 73 77 81 80 79 77 75 81 78 77 72 70
72 80 87 93 96 101 95 96 77 72 62 56 52 45 34 29 24 18 11 14 23 36 47 49 50 54 62 70 71 72 77 79 75 74 77 81 83 82 85 86 86 85 84 82
74 79 86 91 97 102 98 91 78 71 62 58 55 50 37 29 26 22 15 10 15 24 36 42 45 49 51 57 66 70 71 74 78 77 76 78 82 87 87 87 90 90 90 90
74 77 84 89 94 99 95 86 81 68 61 56 57 52 45 30 23 21 18 14 11 17 27 34 40 44 47 49 55 64 69 70 72 75 80 81 81 83 89 91 92 91 89 89
73 78 85 89 93 97 98 92 83 66 60 54 54 51 49 35 25 20 16 15 13 11 17 24 32 37 41 46 49 53 58 66 71 74 76 80 84 85 86 89 95 97 96 93
76 83 86 86 91 96 95 86 76 63 58 53 52 52 48 40 28 22 18 13 13 13 15 18 21 26 30 37 43 47 50 56 61 67 73 76 78 81 85 89 92 94 98 101
75 82 86 88 92 92 93 84 74 64 55 53 51 51 48 43 33 24 19 17 16 17 16 21 21 20 19 21 24 28 37 46 53 58 60 64 70 78 83 87 90 94 99 101
73 79 82 89 90 95 89 82 70 60 51 51 50 50 49 45 38 30 22 18 17 19 20 20 23 22 21 22 20 23 25 26 29 36 43 53 62 68 72 76 83 90 98 99
72 80 86 91 91 95 80 76 67 57 48 49 50 49 49 45 40 35 27 21 18 17 20 24 23 26 26 26 29 28 29 29 31 33 35 39 43 50 57 64 69 75 78 80
73 79 85 91 92 91 79 70 64 54 45 44 48 48 49 49 45 41 33 24 19 15 16 19 25 27 30 31 32 35 35 34 32 30 31 35 38 44 45 42 45 56 53 58
76 80 86 91 94 88 75 63 58 53 41 40 43 45 48 48 47 42 37 28 20 14 12 14 17 20 24 25 25 32 35 33 31 33 32 32 30 36 35 27 30 38 37 37
81 82 89 95 94 81 73 58 51 47 39 37 40 44 43 46 46 43 40 31 23 16 11 12 13 14 16 15 15 18 23 28 29 29 25 26 19 21 31 25 16 21 18 19
85 84 88 93 88 81 70 54 48 41 38 36 38 40 44 43 45 43 40 35 31 25 18 14 13 14 14 13 11 11 12 16 17 18 19 19 19 16 11 14 12 7 5 5
87 85 91 91 84 75 68 55 46 38 37 35 36 38 41 43 41 41 38 36 35 28 24 23 19 16 14 13 11 7 6 7 9 11 14 16 17 14 10 9 8 10 11 11
85 89 90 87 81 74 65 58 48 38 35 33 35 36 38 42 39 36 37 33 33 31 27 25 24 21 20 20 17 13 9 6 3 4 5 6 5 5 5 5 6 6 7 7
89 94 79 92 83 70 65 64 50 38 34 33 32 34 38 38 37 34 30 31 27 24 21 19 20 20 20 19 17 17 17 16 15 13 13 13 13 12 12 12 11 9 7 5
92 93 83 82 82 76 63 61 49 41 34 36 33 32 36 38 36 33 31 27 27 24 21 17 15 14 13 14 15 15 14 13 12 11 10 10 9 9 11 12 13 14 15 14
98 94 73 80 89 81 65 59 51 44 37 36 36 35 32 37 36 31 30 29 25 23 21 19 17 14 11 11 11 10 9 9 8 8 9 10 10 11 11 11 12 12 11 10
Wind_Direction
360 359 0 3 3 360 358 357 352 343 338 337 329 307 279 245 230 219 212 211 207 208 206 203 204 209 211 213 211 209 213 217 228 224 226 231 232 235 236 238 242 244 247 247
1 1 1 4 2 0 0 358 355 346 343 343 336 318 285 243 230 222 213 213 211 210 210 209 209 208 211 213 213 215 211 215 219 229 231 234 234 233 235 237 240 240 244 248
360 359 3 5 2 1 359 359 358 351 348 350 341 327 294 249 227 223 217 212 216 213 213 212 212 212 214 212 214 211 212 214 219 227 232 237 239 238 235 237 237 240 240 242
359 358 3 2 1 359 358 358 359 352 350 352 348 340 308 253 228 223 217 215 217 218 215 216 216 219 220 218 216 216 215 214 221 229 231 236 239 241 240 239 242 244 244 241
355 357 360 360 2 0 358 356 359 352 353 352 353 351 335 265 224 221 220 216 218 219 220 219 221 221 221 222 223 221 222 221 219 230 234 235 236 239 238 240 239 240 240 241
353 354 358 359 360 359 359 355 357 354 353 352 355 356 349 326 241 226 222 219 218 221 223 221 222 226 226 225 222 224 224 225 225 222 224 234 237 241 241 242 244 240 240 242
355 356 357 358 359 0 356 354 355 355 353 354 357 356 357 346 288 234 228 227 224 223 225 226 224 223 228 232 229 226 225 225 228 228 229 229 233 236 241 241 238 241 246 246
354 354 356 359 0 360 356 354 353 354 355 356 359 359 356 357 335 265 237 232 228 229 228 227 228 227 225 229 235 234 230 227 228 228 230 235 236 235 231 236 238 238 240 243
353 352 356 357 359 358 358 356 349 353 355 359 358 0 359 354 350 320 259 241 234 231 231 231 230 230 230 228 228 233 237 234 233 231 229 232 235 235 232 232 238 239 238 243
350 354 354 353 357 355 358 356 348 348 353 358 360 360 356 356 350 338 306 253 241 232 232 234 233 233 233 233 231 232 233 235 237 236 234 231 233 236 235 234 238 240 242 244
347 350 352 351 354 354 355 354 347 345 352 355 356 359 357 354 350 342 332 291 250 239 235 234 236 235 236 235 235 234 234 235 235 237 238 237 236 235 238 237 237 241 243 244
346 348 349 350 351 353 354 352 352 344 347 351 355 355 356 355 348 341 328 320 291 248 238 237 238 238 239 238 237 237 238 238 239 239 240 240 240 239 238 239 242 244 247 247
343 345 347 348 348 349 351 353 351 342 343 349 351 354 353 353 349 342 329 312 309 285 260 242 238 239 240 242 241 241 242 242 242 242 242 242 242 243 243 242 242 244 245 246
337 339 341 345 345 345 348 349 347 340 340 346 350 353 354 353 349 341 331 303 281 279 261 256 247 247 248 248 246 243 244 246 246 247 247 249 249 248 247 247 247 246 246 247
338 338 339 340 341 344 345 347 345 340 339 344 347 350 354 353 350 344 332 317 284 266 259 255 244 242 244 247 250 252 254 253 250 250 251 251 251 251 251 250 250 250 250 249
335 338 338 337 340 341 341 344 344 337 339 342 346 350 352 353 354 349 335 324 310 277 262 255 254 252 250 253 258 254 252 260 260 258 257 255 254 254 255 255 254 252 251 251
331 332 333 334 337 339 340 341 343 335 337 345 345 349 349 353 355 357 346 331 321 306 280 265 261 256 257 261 268 272 269 266 264 258 259 260 263 261 260 260 262 262 262 259
331 331 329 330 334 336 336 338 339 334 334 346 346 348 348 352 355 357 354 342 326 309 300 279 266 264 263 262 261 262 264 269 269 261 262 263 269 270 273 272 268 266 265 259
323 324 327 328 330 332 333 334 334 331 330 343 347 347 347 350 353 355 359 353 342 327 307 301 287 279 276 276 268 261 258 260 260 266 275 278 287 295 300 299 280 273 270 263
320 322 322 323 326 330 329 330 329 325 323 335 343 346 349 349 351 354 359 7 5 348 335 327 323 312 297 293 289 275 269 270 271 280 282 284 295 306 328 329 307 274 271 268
318 318 319 321 323 324 324 325 323 321 317 326 336 340 348 349 351 355 358 6 16 18 13 4 358 349 342 335 309 285 280 269 273 276 276 277 284 295 319 354 4 345 337 315
312 314 316 319 318 320 318 322 315 317 310 317 327 334 338 347 349 354 359 0 8 20 23 22 14 8 6 8 9 2 330 305 292 287 283 279 278 286 312 337 14 53 65 72
308 310 312 315 315 314 314 315 310 313 306 308 318 324 330 336 344 351 357 4 7 13 23 25 24 29 32 34 35 41 45 38 12 297 281 264 265 292 310 345 8 29 32 31
303 306 309 310 310 308 309 310 311 311 302 300 309 316 318 325 335 339 348 357 6 6 14 19 27 26 28 34 38 45 52 54 52 49 44 39 33 32 36 42 41 44 46 35
302 304 303 306 304 308 304 305 305 301 301 292 298 305 310 312 322 331 331 340 350 358 0 5 17 23 27 29 34 42 40 37 39 33 32 36 40 40 38 42 41 41 43 45
298 299 299 301 303 303 297 297 296 294 297 295 288 291 300 302 310 316 322 325 330 339 350 354 359 6 12 14 17 22 29 21 19 17 14 13 15 23 27 29 33 35 35 28
Height
10661 10648 10633 10617 10601 10586 10572 10560 10549 10537 10527 10519 10510 10504 10503 10503 10505 10510 10518 10527 10535 10547 10558 10569 10580 10588 10596 10605 10614 10627 10639 10647 10646 10647 10652 10660 10670 10677 10682 10688 10693 10699 10702 10707
10656 10643 10628 10611 10596 10581 10570 10557 10545 10533 10523 10512 10504 10498 10495 10496 10499 10504 10510 10518 10526 10535 10545 10558 10567 10574 10582 10593 10603 10615 10625 10634 10639 10637 10645 10653 10660 10666 10670 10676 10682 10687 10691 10694
10650 10637 10624 10608 10597 10581 10565 10550 10540 10529 10519 10509 10498 10492 10488 10489 10492 10496 10503 10509 10517 10525 10534 10544 10553 10560 10568 10581 10593 10604 10613 10620 10627 10631 10636 10644 10650 10653 10661 10663 10668 10674 10678 10684
10645 10634 10619 10605 10590 10575 10559 10545 10535 10524 10514 10505 10495 10487 10483 10482 10485 10489 10495 10502 10509 10517 10525 10533 10542 10551 10559 10572 10581 10592 10602 10609 10617 10622 10627 10633 10638 10643 10650 10654 10657 10662 10666 10671
10642 10631 10616 10600 10585 10572 10557 10543 10532 10521 10510 10501 10491 10484 10480 10478 10480 10484 10488 10494 10502 10509 10517 10525 10531 10539 10549 10559 10571 10581 10591 10600 10606 10613 10617 10622 10627 10632 10638 10642 10646 10648 10653 10658
10638 10625 10613 10600 10585 10569 10557 10541 10530 10520 10509 10499 10490 10482 10478 10476 10477 10480 10483 10487 10493 10501 10508 10515 10522 10529 10537 10546 10558 10568 10578 10588 10596 10602 10608 10613 10616 10620 10628 10632 10634 10636 10643 10647
10634 10621 10610 10597 10581 10570 10560 10541 10530 10520 10510 10500 10488 10481 10477 10474 10473 10475 10478 10482 10486 10492 10499 10505 10512 10520 10527 10534 10543 10554 10563 10572 10581 10589 10597 10602 10607 10611 10615 10621 10625 10627 10633 10636
10630 10619 10608 10593 10581 10568 10555 10541 10529 10521 10511 10500 10489 10480 10475 10472 10470 10471 10473 10475 10478 10483 10488 10495 10502 10509 10517 10525 10531 10539 10549 10558 10566 10574 10582 10589 10594 10599 10603 10607 10612 10616 10620 10624
10627 10616 10603 10593 10579 10567 10552 10541 10529 10519 10511 10501 10491 10481 10474 10470 10467 10466 10467 10470 10472 10475 10479 10484 10490 10497 10504 10512 10520 10527 10534 10543 10551 10558 10566 10573 10580 10584 10588 10593 10597 10602 10607 10611
10623 10608 10600 10591 10578 10567 10557 10544 10530 10519 10511 10502 10494 10484 10475 10469 10466 10464 10463 10463 10465 10468 10471 10476 10481 10486 10492 10499 10507 10515 10521 10529 10536 10543 10550 10557 10563 10568 10573 10577 10581 10586 10590 10595
10617 10606 10599 10588 10577 10567 10556 10545 10530 10520 10510 10503 10494 10487 10478 10470 10466 10462 10460 10459 10459 10461 10464 10467 10471 10477 10482 10488 10494 10501 10508 10515 10521 10527 10534 10539 10545 10549 10554 10560 10565 10568 10572 10577
10613 10603 10596 10584 10575 10564 10554 10545 10535 10523 10513 10504 10495 10486 10478 10471 10466 10462 10459 10457 10456 10456 10458 10460 10463 10468 10473 10478 10482 10488 10495 10501 10508 10513 10517 10521 10526 10531 10536 10540 10544 10549 10553 10557
10608 10601 10592 10581 10571 10563 10552 10543 10535 10525 10516 10507 10498 10489 10479 10470 10465 10461 10459 10457 10455 10454 10454 10455 10457 10460 10464 10468 10472 10476 10482 10487 10491 10495 10499 10503 10508 10512 10516 10520 10525 10529 10532 10536
10603 10595 10589 10581 10571 10561 10553 10542 10532 10524 10517 10509 10499 10491 10481 10471 10464 10459 10457 10456 10455 10455 10453 10453 10453 10454 10457 10460 10463 10467 10470 10473 10476 10480 10485 10489 10493 10496 10499 10502 10504 10507 10510 10513
10598 10591 10584 10576 10568 10558 10550 10542 10531 10523 10515 10509 10500 10490 10482 10473 10464 10457 10454 10452 10452 10452 10452 10451 10450 10452 10453 10455 10457 10458 10460 10462 10465 10467 10470 10472 10474 10476 10478 10478 10479 10482 10485 10487
10594 10586 10580 10573 10566 10558 10548 10540 10532 10524 10515 10507 10500 10490 10482 10475 10465 10456 10451 10448 10447 10446 10447 10448 10447 10448 10449 10450 10452 10454 10454 10454 10454 10454 10455 10456 10457 10458 10458 10457 10455 10454 10455 10461
10589 10582 10575 10568 10561 10556 10545 10537 10531 10523 10514 10506 10499 10490 10482 10475 10467 10457 10450 10445 10442 10441 10440 10441 10442 10443 10444 10444 10444 10446 10447 10447 10448 10447 10446 10445 10444 10441 10439 10438 10439 10437 10438 10445
10579 10577 10571 10564 10558 10550 10544 10535 10530 10524 10515 10507 10499 10491 10483 10474 10466 10457 10449 10443 10438 10435 10434 10434 10434 10434 10435 10437 10438 10437 10436 10437 10438 10437 10437 10436 10435 10430 10429 10428 10422 10415 10417 10413
10574 10569 10564 10559 10553 10547 10542 10533 10526 10522 10516 10507 10501 10493 10484 10475 10467 10458 10449 10441 10435 10432 10429 10429 10429 10428 10427 10426 10427 10426 10426 10427 10429 10429 10430 10429 10427 10420 10416 10411 10403 10397 10398 10397
10565 10562 10558 10553 10547 10543 10537 10528 10523 10518 10514 10507 10500 10493 10487 10478 10469 10460 10452 10444 10436 10431 10428 10426 10424 10423 10421 10419 10417 10417 10416 10418 10421 10422 10423 10421 10421 10416 10406 10402 10398 10393 10392 10389
10557 10554 10551 10548 10541 10538 10531 10526 10519 10516 10512 10506 10500 10493 10487 10480 10471 10463 10455 10447 10440 10433 10428 10425 10422 10420 10417 10414 10411 10410 10410 10411 10413 10413 10414 10415 10415 10414 10410 10404 10396 10391 10390 10389
10548 10547 10542 10541 10533 10530 10525 10524 10515 10512 10508 10504 10499 10494 10487 10482 10475 10466 10458 10451 10445 10438 10433 10429 10425 10421 10418 10415 10412 10409 10408 10409 10409 10409 10410 10411 10410 10408 10406 10403 10400 10395 10393 10392
10540 10539 10537 10532 10524 10522 10518 10519 10512 10507 10504 10500 10496 10493 10488 10482 10477 10471 10463 10456 10449 10442 10437 10434 10430 10426 10422 10418 10415 10412 10410 10409 10409 10409 10409 10409 10408 10405 10403 10401 10398 10396 10395 10394
10531 10528 10524 10524 10512 10515 10511 10508 10507 10502 10499 10496 10493 10490 10486 10483 10479 10474 10469 10463 10456 10450 10445 10440 10435 10431 10427 10423 10420 10418 10415 10413 10411 10411 10409 10407 10405 10404 10401 10399 10397 10395 10394 10393
10519 10514 10510 10514 10500 10508 10502 10499 10498 10495 10493 10491 10487 10485 10483 10480 10478 10474 10469 10466 10461 10455 10450 10445 10440 10436 10432 10429 10426 10423 10421 10419 10417 10416 10413 10411 10409 10407 10404 10402 10399 10397 10395 10394
10503 10498 10495 10503 10491 10496 10489 10490 10487 10486 10486 10485 10481 10478 10478 10475 10474 10471 10468 10464 10461 10458 10453 10448 10444 10439 10436 10432 10429 10427 10424 10422 10421 10418 10416 10414 10411 10409 10406 10404 10402 10400 10398 10397